EN

Hourly Weather Labenschina

Today, 25 July, Sunday

Time Temperature Precipitation Wind Pressure Humidity
00:00 +16°C° 0 mm 1 mps 739 mmHg 71%
01:00 +15°C° 0 mm 1 mps 739 mmHg 71%
02:00 +15°C° 0 mm 1 mps 739 mmHg 71%
03:00 +15°C° 0 mm 1 mps 740 mmHg 71%
04:00 +15°C° 0 mm 1 mps 740 mmHg 71%
05:00 +15°C° 0 mm 1 mps 740 mmHg 71%
06:00 +18°C° 0 mm 1 mps 740 mmHg 67%
07:00 +19°C° 0 mm 1 mps 740 mmHg 63%
08:00 +21°C° 0 mm 1 mps 740 mmHg 59%
09:00 +22°C° 0 mm 1 mps 741 mmHg 56%
10:00 +24°C° 0 mm 1 mps 741 mmHg 53%
11:00 +25°C° 0 mm 1 mps 741 mmHg 49%
12:00 +26°C° 0 mm 1 mps 741 mmHg 48%
13:00 +26°C° 0 mm 1 mps 741 mmHg 47%
14:00 +27°C° 0 mm 2 mps 741 mmHg 46%
15:00 +27°C° 0 mm 1 mps 741 mmHg 47%
16:00 +27°C° 0 mm 1 mps 741 mmHg 49%
17:00 +26°C° 0 mm 1 mps 741 mmHg 50%
18:00 +25°C° 0 mm 1 mps 741 mmHg 55%
19:00 +24°C° 0 mm 1 mps 741 mmHg 60%
20:00 +22°C° 0 mm 1 mps 741 mmHg 65%
21:00 +22°C° 0 mm 1 mps 741 mmHg 66%
22:00 +21°C° 0 mm 1 mps 741 mmHg 68%
23:00 +20°C° 0 mm 1 mps 741 mmHg 70%

Tomorrow, 26 July, Monday

Time Temperature Precipitation Wind Pressure Humidity
00:00 +20°C° 0 mm 1 mps 741 mmHg 71%
01:00 +18°C° 0 mm 2 mps 741 mmHg 73%
02:00 +18°C° 0 mm 2 mps 741 mmHg 75%
03:00 +17°C° 0 mm 2 mps 741 mmHg 77%
04:00 +17°C° 0 mm 2 mps 741 mmHg 79%
05:00 +17°C° 0 mm 2 mps 742 mmHg 81%
06:00 +19°C° 0 mm 2 mps 742 mmHg 75%
07:00 +20°C° 0 mm 2 mps 742 mmHg 69%
08:00 +22°C° 0 mm 3 mps 742 mmHg 63%
09:00 +25°C° 0 mm 3 mps 742 mmHg 58%
10:00 +26°C° 0 mm 3 mps 742 mmHg 53%
11:00 +27°C° 0 mm 3 mps 742 mmHg 49%
12:00 +28°C° 0 mm 3 mps 742 mmHg 46%
13:00 +28°C° 0 mm 3 mps 742 mmHg 44%
14:00 +29°C° 0 mm 3 mps 742 mmHg 42%
15:00 +28°C° 0 mm 3 mps 741 mmHg 44%
16:00 +28°C° 0 mm 3 mps 741 mmHg 46%
17:00 +28°C° 0 mm 3 mps 741 mmHg 49%
18:00 +26°C° 0 mm 3 mps 741 mmHg 54%
19:00 +24°C° 0 mm 3 mps 741 mmHg 60%
20:00 +21°C° 0 mm 3 mps 741 mmHg 66%
21:00 +21°C° 0 mm 3 mps 741 mmHg 67%
22:00 +20°C° 0 mm 3 mps 741 mmHg 69%
23:00 +19°C° 0 mm 3 mps 741 mmHg 70%

Day after tomorrow, 27 July, Tuesday

Time Temperature Precipitation Wind Pressure Humidity
00:00 +19°C° 0 mm 3 mps 741 mmHg 71%
01:00 +18°C° 0 mm 3 mps 741 mmHg 73%
02:00 +17°C° 0 mm 3 mps 741 mmHg 75%
03:00 +18°C° 0 mm 3 mps 741 mmHg 75%
04:00 +18°C° 0 mm 3 mps 740 mmHg 76%
05:00 +18°C° 0 mm 4 mps 740 mmHg 76%
06:00 +19°C° 0 mm 4 mps 740 mmHg 73%
07:00 +20°C° 0 mm 5 mps 740 mmHg 69%
08:00 +21°C° 0 mm 5 mps 740 mmHg 66%
09:00 +23°C° 0 mm 6 mps 740 mmHg 61%
10:00 +26°C° 0 mm 6 mps 739 mmHg 57%
11:00 +27°C° 0 mm 7 mps 739 mmHg 52%
12:00 +27°C° 0 mm 6 mps 739 mmHg 52%
13:00 +28°C° 0 mm 6 mps 739 mmHg 51%
14:00 +28°C° 0 mm 6 mps 738 mmHg 51%
15:00 +27°C° 0 mm 5 mps 738 mmHg 54%
16:00 +26°C° 0 mm 5 mps 738 mmHg 57%
17:00 +25°C° 0 mm 5 mps 737 mmHg 61%
18:00 +23°C° 1.1 mm 4 mps 737 mmHg 72%
19:00 +21°C° 1.1 mm 3 mps 737 mmHg 83%
20:00 +20°C° 1.1 mm 2 mps 737 mmHg 95%
21:00 +19°C° 1.6 mm 2 mps 737 mmHg 95%
22:00 +20°C° 1.6 mm 1 mps 737 mmHg 96%
23:00 +20°C° 1.6 mm 1 mps 737 mmHg 96%

28 July, Wednesday

Time Temperature Precipitation Wind Pressure Humidity
00:00 +20°C° 0.2 mm 1 mps 736 mmHg 96%
01:00 +19°C° 0.2 mm 1 mps 736 mmHg 97%
02:00 +19°C° 0.2 mm 1 mps 736 mmHg 97%
03:00 +18°C° 0 mm 2 mps 736 mmHg 97%
04:00 +18°C° 0 mm 2 mps 735 mmHg 97%
05:00 +18°C° 0 mm 2 mps 735 mmHg 98%
06:00 +19°C° 0 mm 3 mps 735 mmHg 94%
07:00 +20°C° 0 mm 3 mps 735 mmHg 90%
08:00 +21°C° 0 mm 4 mps 736 mmHg 86%
09:00 +23°C° 0 mm 4 mps 736 mmHg 78%
10:00 +25°C° 0 mm 5 mps 736 mmHg 70%
11:00 +27°C° 0 mm 5 mps 736 mmHg 62%
12:00 +27°C° 0 mm 5 mps 736 mmHg 57%
13:00 +28°C° 0 mm 5 mps 736 mmHg 53%
14:00 +28°C° 0 mm 5 mps 736 mmHg 49%
15:00 +28°C° 0 mm 5 mps 736 mmHg 51%
16:00 +28°C° 0 mm 4 mps 736 mmHg 52%
17:00 +28°C° 0 mm 4 mps 736 mmHg 54%
18:00 +26°C° 0 mm 3 mps 736 mmHg 58%
19:00 +25°C° 0 mm 2 mps 735 mmHg 63%
20:00 +24°C° 0 mm 2 mps 735 mmHg 67%
21:00 +23°C° 0 mm 2 mps 735 mmHg 69%
22:00 +23°C° 0 mm 1 mps 735 mmHg 70%
23:00 +22°C° 0 mm 1 mps 735 mmHg 72%

29 July, Thursday

Time Temperature Precipitation Wind Pressure Humidity
00:00 +22°C° 0 mm 1 mps 735 mmHg 73%
01:00 +21°C° 0 mm 1 mps 734 mmHg 74%
02:00 +21°C° 0 mm 1 mps 734 mmHg 75%
03:00 +21°C° 0.6 mm 1 mps 734 mmHg 81%
04:00 +19°C° 0.6 mm 2 mps 734 mmHg 88%
05:00 +18°C° 0.6 mm 3 mps 734 mmHg 95%
06:00 +18°C° 1.9 mm 2 mps 734 mmHg 96%
07:00 +18°C° 1.9 mm 2 mps 734 mmHg 97%
08:00 +18°C° 1.9 mm 2 mps 734 mmHg 98%
09:00 +18°C° 1.9 mm 2 mps 734 mmHg 96%
10:00 +20°C° 1.9 mm 1 mps 734 mmHg 94%
11:00 +20°C° 1.9 mm 1 mps 735 mmHg 92%
12:00 +21°C° 0.5 mm 1 mps 735 mmHg 87%
13:00 +21°C° 0.5 mm 2 mps 735 mmHg 82%
14:00 +23°C° 0.5 mm 2 mps 734 mmHg 78%
15:00 +22°C° 0.4 mm 3 mps 734 mmHg 79%
16:00 +22°C° 0.4 mm 3 mps 734 mmHg 79%
17:00 +22°C° 0.4 mm 4 mps 734 mmHg 80%
18:00 +21°C° 0.3 mm 3 mps 734 mmHg 84%
19:00 +20°C° 0.3 mm 3 mps 734 mmHg 87%
20:00 +19°C° 0.3 mm 3 mps 734 mmHg 91%
21:00 +18°C° 0 mm 3 mps 734 mmHg 91%
22:00 +17°C° 0 mm 3 mps 734 mmHg 91%
23:00 +17°C° 0 mm 2 mps 734 mmHg 91%

30 July, Friday

Time Temperature Precipitation Wind Pressure Humidity
00:00 +16°C° 0 mm 2 mps 735 mmHg 91%
01:00 +16°C° 0 mm 2 mps 735 mmHg 91%
02:00 +16°C° 0 mm 2 mps 735 mmHg 91%
03:00 +16°C° 0 mm 2 mps 735 mmHg 91%
04:00 +15°C° 0 mm 2 mps 735 mmHg 92%
05:00 +15°C° 0 mm 2 mps 735 mmHg 92%
06:00 +17°C° 0 mm 3 mps 735 mmHg 87%
07:00 +18°C° 0 mm 3 mps 735 mmHg 83%
08:00 +20°C° 0 mm 3 mps 735 mmHg 78%
09:00 +21°C° 0 mm 4 mps 735 mmHg 71%
10:00 +23°C° 0 mm 4 mps 735 mmHg 65%
11:00 +25°C° 0 mm 4 mps 735 mmHg 58%
12:00 +26°C° 0 mm 5 mps 735 mmHg 55%
13:00 +26°C° 0 mm 5 mps 735 mmHg 52%
14:00 +27°C° 0 mm 6 mps 735 mmHg 50%
15:00 +27°C° 0 mm 5 mps 735 mmHg 54%
16:00 +26°C° 0 mm 4 mps 734 mmHg 58%
17:00 +25°C° 0 mm 3 mps 734 mmHg 63%
18:00 +24°C° 0 mm 3 mps 734 mmHg 66%
19:00 +24°C° 0 mm 3 mps 734 mmHg 70%
20:00 +22°C° 0 mm 3 mps 734 mmHg 73%
21:00 +21°C° 0 mm 3 mps 734 mmHg 75%
22:00 +21°C° 0 mm 3 mps 734 mmHg 77%
23:00 +20°C° 0 mm 3 mps 734 mmHg 80%
Show more